Location: Cutler
(25.6150°N, 80.3110°W)
Time: 02:20:11
(UTC-05:00)

N. Korean satellite - Pass Details

Date: 13 November 2017
Orbit: 460 x 514 km, 97.2° (Epoch: 21 November)

Event Time Altitude Azimuth Distance (km) Brightness Sun altitude
Rises 19:05:53 0° 192° (SSW) 2,468 10.5 -21.0°
Reaches altitude 10° 19:08:10 10° 206° (SSW) 1,598 9.6 -21.5°
Maximum altitude 19:11:00 24° 262° (W) 992 8.9 -22.1°
Drops below altitude 10° 19:13:52 10° 319° (NW) 1,612 9.6 -22.7°
Sets 19:16:11 0° 333° (NNW) 2,496 10.4 -23.2°
